Birmingham International Airport (BHM)

 

Airport Diagram
Current Weather/Forecast (VFR Conditions)
METAR KBHM 202314Z 26007KT 10SM SCT018 BKN150 OVC250 26/23 A3004 RMK AO2 T02560228
TAF KBHM 201944Z 2020/2118 21005KT 6SM SHRA VCTS BKN040CB TEMPO 2020/2021 VRB10G20KT 2SM TSRA BKN035CB FM210200 21004KT P6SM VCSH BKN050 FM210600 VRB03KT P6SM SCT015 BKN150 FM211500 18004KT P6SM VCSH BKN040

All Charts
General
Chart Name Download
AIRPORT DIAGRAM
TAKEOFF MINIMUMS
ALTERNATE MINIMUMS
LAHSO

Departures
Chart Name Download
BIRMINGHAM SEVEN
BIRMINGHAM SEVEN, CONT.1

Approaches
Chart Name Download
ILS OR LOC RWY 06
ILS OR LOC RWY 24
ILS RWY 06 (CAT II)
ILS RWY 24 (SA CAT II)
RNAV (RNP) Z RWY 06
RNAV (RNP) Z RWY 24
RNAV (GPS) RWY 18
RNAV (GPS) RWY 36
RNAV (GPS) Y RWY 06
RNAV (GPS) Y RWY 24
LOC RWY 18


Inbound Traffic (Arrivals)

No inbound traffic.


Outbound Traffic (Departures)

No outbound traffic.